Regional Weather Roundup
Issued by NWS San Diego, CA

Home | Current Version | Previous Version | Text Only | Print | Product List | Glossary On
Versions: 1 2 3 4 5 6 7 8 9 10 11 12 13 14 15 16 17 18 19 20 21 22 23 24 25 26 27 28
000
ASUS46 KSGX 252111
RWRSGX

SAN DIEGO HOURLY WEATHER ROUNDUP
NATIONAL WEATHER SERVICE SAN DIEGO CA
200 PM PDT SAT MAR 25 2017

NOTE: "FAIR" INDICATES FEW OR NO CLOUDS BELOW 12,000 FEET WITH NO
SIGNIFICANT WEATHER AND/OR OBSTRUCTIONS TO VISIBILITY.

CAZ042-043-060-061-PZZ750-775-252200-

GREATER SAN DIEGO AREA

CITY           SKY/WX    TMP DP  RH WIND       PRES   REMARKS
SAN DIEGO AP   PTSUNNY   69  49  48 W10       30.10F
NATIONAL CITY    N/A     67  56  67 SW9       30.09F
CHULA VISTA      N/A     69  56  64 W6        30.01F
IMPERIAL BEACH MOSUNNY   66  52  60 W14       30.10F
BROWN FIELD    MOSUNNY   68  52  56 VRB6      30.08F
MIRAMAR MCAS   PTSUNNY   70  51  51 W7        30.08F
MONTGOMERY FLD PTSUNNY   67  49  52 W9        30.08F

$$

NORTH SAN DIEGO COUNTY

CITY           SKY/WX    TMP DP  RH WIND       PRES   REMARKS
CAMP PENDLETON PTSUNNY   65  55  70 SW10      30.07F
OCEANSIDE AP   SUNNY     65  56  72 SW10      30.08S
OCEANSIDE HBR    N/A     59  55  86 W12       30.11F
VISTA            N/A     65  55  70 W1        30.06F
CARLSBAD       MOSUNNY   63  53  70 SW9       30.08F
DEL MAR          N/A     65  56  71 W2        30.11F
LA JOLLA SCRIP   N/A     62  56  79 SW3       30.09F
FALLBROOK        N/A     67  59  76 SW8       30.04F
ESCONDIDO        N/A     69  53  57 W10       30.08F
SAN MARCOS       N/A     65  52  63 NW6       30.09F
POWAY            N/A     69  53  54 CALM      30.10F

$$

EAST SAN DIEGO COUNTY

CITY           SKY/WX    TMP DP  RH WIND       PRES   REMARKS
RAMONA         PTSUNNY   62  52  69 CALM      30.08F
SANTEE LAKES     N/A     68  53  58 W3        30.07F
LA MESA          N/A     65  51  59 W7        30.02F
JAMUL            N/A     65  52  62 CALM      30.09F
DESCANSO N       N/A     53  45  74 W3        30.04S
CAMPO            N/A     62  48  60 SW14      30.04F

$$

ORANGE COUNTY AND THE LOS ANGELES BASIN

CITY           SKY/WX    TMP DP  RH WIND       PRES   REMARKS
JOHN WAYNE AP  PTSUNNY   68  54  60 SW9       30.07F
LAGUNA BEACH     N/A     65  58  77 SE3       30.04F
LAKE FOREST FR   N/A     65  49  56 W2        29.97F
HUNTINGTON BCH   N/A     67  59  76 SW3       30.10F
LOS ALAMITOS   MOSUNNY   64  57  78 S12       30.07F
FULLERTON      PTSUNNY   68  55  63 SW12      30.06F
LONG BEACH     PTSUNNY   65  54  67 S12       30.07F
L.A. AP        PTSUNNY   64  55  72 W16       30.07F
L.A. DOWNTOWN  MOSUNNY   68  53  58 VRB6      30.06F

$$

THE INLAND EMPIRE

CITY           SKY/WX    TMP DP  RH WIND       PRES   REMARKS
CORONA         PTSUNNY   68  51  54 W8        30.05F
CHINO          PTSUNNY   70  52  52 SW15      30.06F
ONTARIO        PTSUNNY   67  48  50 SW12      30.05F
SAN BERNARDINO PTSUNNY   68  45  42 W12       30.06F
RIVERSIDE AP   PTSUNNY   69  50  50 W8        30.05F
MORENO VALLEY    N/A     64  53  67 SE3       28.17F
MARCH ARB      MOSUNNY   66  48  51 W9G20     30.05F
HORSETHIEF CYN   N/A     64  45  50 CALM      30.07F
PERRIS           N/A     68  50  53 NW8       30.06F
HEMET EAST       N/A     61  42  48 W3        30.11F
FRENCH VALLEY  CLOUDY    64  50  59 S10G17    30.06F
TEMECULA         N/A     64  53  67 SW8       30.11F

$$

SAN BERNARDINO AND RIVERSIDE COUNTY MOUNTAINS

CITY           SKY/WX    TMP DP  RH WIND       PRES   REMARKS
BIG BEAR AP    SUNNY     46  21  36 SW9G18    30.07F
ANGELUS OAKS     N/A     49  38  67 W3        29.95F
PINE COVE        N/A     42  38  85 W5        30.02R

$$

SOUTHERN DESERT INCLUDING THE COACHELLA VALLEY

CITY           SKY/WX    TMP DP  RH WIND       PRES   REMARKS
PALM SPRINGS   MOSUNNY   81  26  13 VRB7      29.92F
PALM DESERT      N/A     82  35  18 N3        29.82F
THERMAL        SUNNY     83  34  17 NW10G18   29.89F
BLYTHE         MOSUNNY   81  35  19 VRB3      29.88F
IMPERIAL AP    SUNNY     81  44  27 W18G29    29.91F
EL CENTRO NAS  MOSUNNY   83  36  18 NW21G28   29.94F
YUMA AZ        SUNNY     81  37  20 W16G28    29.91
MEXICALI       MOSUNNY   81  34  18 W9        29.93F

$$

UPPER DESERT

CITY           SKY/WX    TMP DP  RH WIND       PRES   REMARKS
VICTORVILLE AP SUNNY     64  32  29 W15G23    30.02F
HESPERIA         N/A     65  42  43 SW8       30.11F
PALMDALE       SUNNY     65  41  41 SW17G31   30.04F
LANCASTER      PTSUNNY   64  40  41 W17G29    30.03F
EDWARDS AFB    PTSUNNY   66  36  33 W12G22    29.99F
DAGGETT        SUNNY     71  37  28 W20G29    29.96F
29 PALMS N     SUNNY     73  18  12 NW21G31   30.02F
NEEDLES        SUNNY     81  32  17 NW15G22   29.89F

$$

REGIONAL REPORTS

CITY           SKY/WX    TMP DP  RH WIND       PRES   REMARKS
SANTA BARBARA  MOSUNNY   66  53  63 W10       30.06F
SANDBERG       CLOUDY    52  43  71 NW22      30.10F
LAS VEGAS NV   PTSUNNY   69  34  27 NW12G22   29.93F
PHOENIX AZ     MOSUNNY   80  29  15 S8        29.88F
TIJUANA        PTSUNNY   66  48  52 NW6       30.11F
ENSENADA NW      N/A     64  32  29 W16       30.06F

$$

OFFSHORE ISLANDS

CITY           SKY/WX    TMP DP  RH WIND       PRES   REMARKS
CATALINA ARPT  CLOUDY    58  52  80 W9        30.09F
SAN NICOLAS IS MOSUNNY  N/A N/A N/A NW21G28   30.10F

$$

MARINE AND OFFSHORE BUOY REPORTS

STATION/POSITION SKY/WX   TEMP    WIND        PRES    VSBY  SWELL
                          AIR SEA DIR/SP/G                  HT/PER/DIR
                          (F)     (DEG/KT/KT) (MB)    (MI)  (FT/S/D)
TANNER BANKS               58 60  320/ 17/ 21 1019.7F         5/300/13
S CLEMENTE BASIN           60 62  250/  4/  6 1019.4F         5/280/11
SAN NICOLAS IS.               57                N/A           3/280/13
SO. S. ROSA ISLA           57 57  300/ 17/ 21 1019.7F         7/290/10
W. S. BARBARA CH           57 57  320/ 19/ 21 1019.7F         7/260/10
M. S. BARBARA CH                  270/ 16/ 21 1018.9
S. MONICA BASIN            58 60  250/ 10/ 12 1018.5
S PEDRO CHANNEL               61                N/A           2/280/11
CMP PENDLETON NS              60                N/A           2/240/13
OCEANSIDE OFFSHR              61                N/A           2/220/13
TORREY PINES OTR              62                N/A           3/290/11
POINT LOMA SOUTH              63                N/A           3/290/11

$$





USA.gov is the U.S. government's official web portal to all federal, state and local government web resources and services.